Mackall AAF, NC

9:00 AM EST on January 18, 2018 (GMT -0500)
Mackall Army Air Field

Weather History for KHFF - May, 2013

Change the Weather History Date:

Wednesday, May 1, 2013

  Actual Average Record
Temperature  
Mean Temperature 60 °F -  
Max Temperature 64 °F 75 °F 95 °F (2007)
Min Temperature 56 °F 55 °F 42 °F (2008)
Degree Days  
Heating Degree Days 5    
Growing Degree Days 10 (Base 50)    
Moisture  
Dew Point 56 °F    
Average Humidity 86    
Maximum Humidity 95    
Minimum Humidity 74    
Precipitation  
Precipitation 0.04 in - - ()
Sea Level Pressure  
Sea Level Pressure 30.24 in    
Wind  
Wind Speed 9 mph (NE)    
Max Wind Speed 14 mph    
Max Gust Speed 21 mph    
Visibility 10 miles    
Events Rain    
Averages and records for this station are not official NWS values.
T = Trace of Precipitation, MM = Missing Value Source: NWS Daily Summary

Daily Weather History Graph

Daily Weather History Graph

Search for Another Location

Airport or City:

Trip Planner

Search our weather history database for the weather conditions in past years. The results will help you decide how hot, cold, wet, or windy it might be!

Date:

Astronomy

May. 01, 2013 Rise Set
Actual Time 6:26 AM EDT 8:03 PM EDT
Civil Twilight 5:59 AM EDT 8:30 PM EDT
Nautical Twilight 5:27 AM EDT 9:03 PM EDT
Astronomical Twilight 4:52 AM EDT 9:38 PM EDT
Moon 1:11 AM EDT (5/1) 12:03 PM EDT (5/1)
Length of Visible Light 14h 31m
Length of Day
13h 36m
Waning Gibbous, 59% of the Moon is Illuminated
May 1
Waning Gibbous
May 2
Last Quarter
May 9
New
May 18
First Quarter
May 25
Full

Hourly Weather History & Observations

Time (EDT) Temp. Dew Point Humidity Pressure Visibility Wind Dir Wind Speed Gust Speed Precip Events Conditions
12:56 AM 57.4 °F 54.7 °F 91% 30.18 in 12.0 mi NNE 5.8 mph - N/A   Clear
1:56 AM 57.0 °F 54.3 °F 91% 30.17 in 12.0 mi NNE 6.9 mph - N/A   Clear
2:56 AM 56.8 °F 54.5 °F 92% 30.16 in 12.0 mi NE 4.6 mph - N/A   Scattered Clouds
3:11 AM 57.2 °F 55.4 °F 94% 30.16 in 12.0 mi NE 8.1 mph - N/A   Mostly Cloudy
3:56 AM 58.3 °F 54.7 °F 88% 30.17 in 12.0 mi NE 13.8 mph 18.4 mph N/A   Overcast
4:56 AM 58.3 °F 54.3 °F 87% 30.17 in 12.0 mi ENE 10.4 mph 16.1 mph N/A   Mostly Cloudy
5:56 AM 58.5 °F 54.9 °F 88% 30.18 in 12.0 mi NE 4.6 mph - N/A   Overcast
6:56 AM 58.8 °F 55.4 °F 88% 30.21 in 12.0 mi North 6.9 mph - N/A   Overcast
7:36 AM 59.0 °F 55.4 °F 88% 30.21 in 12.0 mi NNE 8.1 mph - N/A   Overcast
7:56 AM 58.8 °F 55.8 °F 90% 30.21 in 12.0 mi NNE 10.4 mph - N/A   Overcast
8:36 AM 59.0 °F 55.4 °F 88% 30.20 in 12.0 mi NE 9.2 mph - N/A   Overcast
8:56 AM 60.6 °F 56.3 °F 86% 30.22 in 12.0 mi NE 8.1 mph - N/A   Overcast
9:56 AM 61.7 °F 55.9 °F 81% 30.24 in 12.0 mi NE 10.4 mph 18.4 mph N/A   Overcast
10:06 AM 62.6 °F 55.4 °F 77% 30.23 in 12.0 mi NE 6.9 mph 15.0 mph N/A   Overcast
10:12 AM 62.6 °F 55.4 °F 77% 30.24 in 12.0 mi NE 8.1 mph - N/A Rain Light Rain
10:35 AM 62.6 °F 57.2 °F 82% 30.24 in 12.0 mi NE 9.2 mph 16.1 mph N/A   Mostly Cloudy
10:56 AM 62.2 °F 56.3 °F 81% 30.26 in 12.0 mi NE 11.5 mph - N/A   Mostly Cloudy
11:42 AM 64.4 °F 57.2 °F 77% 30.26 in 12.0 mi NE 13.8 mph 18.4 mph N/A Rain Light Rain
11:56 AM 63.0 °F 57.0 °F 81% 30.27 in 12.0 mi ENE 9.2 mph 18.4 mph N/A Rain Light Rain Showers
11:59 AM 62.6 °F 57.2 °F 82% 30.26 in 12.0 mi ENE 13.8 mph 18.4 mph N/A   Mostly Cloudy
12:56 PM 64.6 °F 56.1 °F 74% 30.25 in 12.0 mi NE 12.7 mph 20.7 mph N/A   Mostly Cloudy
1:06 PM 64.4 °F 57.2 °F 77% 30.24 in 12.0 mi NE 13.8 mph 19.6 mph N/A Rain Light Rain
1:23 PM 64.4 °F 57.2 °F 77% 30.24 in 12.0 mi ENE 12.7 mph 20.7 mph N/A   Mostly Cloudy
1:56 PM 63.1 °F 56.3 °F 78% 30.25 in 12.0 mi NE 13.8 mph - N/A   Overcast
2:56 PM 64.0 °F 56.1 °F 75% 30.24 in 12.0 mi ENE 11.5 mph 16.1 mph N/A   Mostly Cloudy
3:56 PM 64.6 °F 56.7 °F 75% 30.25 in 12.0 mi East 9.2 mph - N/A   Overcast
4:56 PM 63.5 °F 56.8 °F 79% 30.25 in 12.0 mi ENE 8.1 mph 17.3 mph N/A   Overcast
5:56 PM 63.1 °F 56.7 °F 79% 30.25 in 12.0 mi ENE 9.2 mph 16.1 mph N/A   Overcast
6:51 PM 62.6 °F 57.2 °F 82% 30.24 in 12.0 mi ENE 10.4 mph - N/A   Mostly Cloudy
6:56 PM 62.8 °F 56.8 °F 81% 30.25 in 12.0 mi NE 8.1 mph - N/A   Mostly Cloudy
7:56 PM 61.5 °F 56.5 °F 83% 30.25 in 12.0 mi ENE 8.1 mph - N/A   Mostly Cloudy
8:11 PM 60.8 °F 57.2 °F 88% 30.25 in 12.0 mi NE 9.2 mph - N/A   Mostly Cloudy
8:16 PM 60.8 °F 57.2 °F 88% 30.25 in 12.0 mi NE 9.2 mph - N/A   Mostly Cloudy
8:49 PM 60.8 °F 57.2 °F 88% 30.26 in 8.0 mi NE 13.8 mph 18.4 mph N/A Rain Light Rain
8:56 PM 60.3 °F 57.4 °F 90% 30.28 in 6.0 mi NE 9.2 mph 18.4 mph N/A Rain Light Rain
9:25 PM 59.0 °F 57.2 °F 94% 30.28 in 7.0 mi NNE 8.1 mph - N/A Rain Light Rain
9:40 PM 59.0 °F 57.2 °F 94% 30.28 in 4.0 mi NE 9.2 mph - N/A Rain Light Rain
9:55 PM 59.0 °F 57.2 °F 94% 30.29 in 5.0 mi NE 9.2 mph - N/A Rain Light Rain
9:56 PM 59.0 °F 57.4 °F 94% 30.30 in 5.0 mi NE 9.2 mph - 0.02 in Rain Light Rain
10:01 PM 59.0 °F 57.2 °F 94% 30.29 in 6.0 mi NE 9.2 mph - N/A Rain Light Rain
10:30 PM 59.0 °F 57.2 °F 94% 30.28 in 6.0 mi NE 8.1 mph - N/A   Overcast
10:32 PM 59.0 °F 57.2 °F 94% 30.28 in 7.0 mi NE 8.1 mph - N/A Rain Light Rain Showers
10:52 PM 59.0 °F 57.2 °F 94% 30.28 in 5.0 mi ENE 9.2 mph 17.3 mph N/A Rain Light Rain Showers
10:56 PM 59.0 °F 57.6 °F 95% 30.29 in 4.0 mi ENE 5.8 mph 17.3 mph 0.01 in Rain Light Rain Showers
11:24 PM 59.0 °F 57.2 °F 94% 30.28 in 9.0 mi ENE 9.2 mph 16.1 mph N/A   Overcast
11:44 PM 59.0 °F 57.2 °F 94% 30.28 in 9.0 mi ENE 8.1 mph 16.1 mph N/A   Overcast
11:56 PM 59.4 °F 57.6 °F 94% 30.29 in 9.0 mi ENE 10.4 mph 16.1 mph 0.01 in   Overcast